TimeEST,TemperatureF,Dew PointF,Humidity,Sea Level PressureIn,VisibilityMPH,Wind Direction,Wind SpeedMPH,Gust SpeedMPH,PrecipitationIn,Events,Conditions,WindDirDegrees,DateUTC
12:53 AM,23.0,15.1,72,30.01,10.0,North,6.9,-,N/A,,Clear,350,2014-02-06 05:53:00
1:53 AM,21.0,12.9,71,30.06,10.0,North,6.9,-,N/A,,Clear,350,2014-02-06 06:53:00
2:53 AM,21.9,14.0,72,30.10,10.0,NNW,3.5,-,N/A,,Overcast,340,2014-02-06 07:53:00
3:53 AM,21.0,12.9,71,30.12,10.0,North,10.4,17.3,N/A,,Partly Cloudy,350,2014-02-06 08:53:00
4:53 AM,19.0,10.9,71,30.16,10.0,North,6.9,-,N/A,,Clear,350,2014-02-06 09:53:00
5:53 AM,18.0,9.0,68,30.21,10.0,NNW,3.5,-,N/A,,Clear,340,2014-02-06 10:53:00
6:53 AM,16.0,8.1,71,30.23,10.0,NNW,5.8,-,N/A,,Clear,340,2014-02-06 11:53:00
7:53 AM,15.1,8.1,74,30.26,10.0,Calm,Calm,-,N/A,,Clear,0,2014-02-06 12:53:00
8:53 AM,18.0,8.1,65,30.28,10.0,NNW,8.1,-,N/A,,Clear,340,2014-02-06 13:53:00
9:53 AM,18.0,7.0,62,30.29,10.0,North,11.5,-,N/A,,Clear,10,2014-02-06 14:53:00
10:53 AM,19.9,8.1,60,30.30,10.0,North,9.2,-,N/A,,Clear,360,2014-02-06 15:53:00
11:53 AM,21.9,8.1,55,30.27,10.0,NNW,8.1,-,N/A,,Clear,330,2014-02-06 16:53:00
12:53 PM,23.0,7.0,50,30.26,10.0,NW,8.1,-,N/A,,Clear,310,2014-02-06 17:53:00
1:53 PM,24.1,6.1,46,30.25,9.0,NW,6.9,-,N/A,,Clear,310,2014-02-06 18:53:00
2:53 PM,26.1,6.1,43,30.25,10.0,Variable,3.5,-,N/A,,Clear,0,2014-02-06 19:53:00
3:53 PM,26.1,6.1,43,30.24,10.0,Calm,Calm,-,N/A,,Clear,0,2014-02-06 20:53:00
4:53 PM,25.0,5.0,43,30.25,10.0,WNW,3.5,-,N/A,,Clear,290,2014-02-06 21:53:00
5:53 PM,19.0,10.0,68,30.25,9.0,Calm,Calm,-,N/A,,Clear,0,2014-02-06 22:53:00
6:53 PM,17.1,9.0,71,30.26,9.0,Calm,Calm,-,N/A,,Clear,0,2014-02-06 23:53:00
7:53 PM,14.0,8.1,77,30.24,10.0,Calm,Calm,-,N/A,,Clear,0,2014-02-07 00:53:00
8:53 PM,12.9,7.0,77,30.25,10.0,Calm,Calm,-,N/A,,Clear,0,2014-02-07 01:53:00
9:53 PM,10.9,6.1,81,30.26,10.0,Calm,Calm,-,N/A,,Clear,0,2014-02-07 02:53:00
10:53 PM,10.9,5.0,77,30.26,10.0,Calm,Calm,-,N/A,,Clear,0,2014-02-07 03:53:00
11:53 PM,10.0,5.0,80,30.26,9.0,Calm,Calm,-,N/A,,Clear,0,2014-02-07 04:53:00